sat.trackr.live / text

‹ back to catalog

STARLINK-34722

NORAD 64851 · 2025-152K

PAYLOAD ACTIVE UNKNOWN

§ Identity

Operator
Country
US
Launch date
2025-07-19
Launch site
AFWTR
Launch vehicle
Mass (kg)
RCS (m²)

Purposes: comms

External: N2YO · Heavens-Above · Gunter

§ Orbital elements

Epoch: 2026-09-20T11:55:22.487520Z

Period
93.91 min
Inclination
97.2811°
Eccentricity
0.0003155
Mean motion
15.33458607 rev/d
Perigee alt
463.3 km
Apogee alt
467.7 km
Semi-major
6,843.6 km
B*
5.2513e-4
RAAN
114.0535°
Arg perigee
78.2335°
Mean anomaly
281.9262°
Rev number
6,482

§ Raw data

STARLINK-347221 64851U 25152K   26263.49678805  .00016925  00000+0  52513-3 0  99962 64851  97.2811 114.0535 0003155  78.2335 281.9262 15.33458607 64827

JSON: /api/v1/satellites/64851 · /tle

For live sub-satellite position, see the globe view (requires WebGL).

§ Visibility from observer

Set your observer location to see the next 7 days of passes ≥ 10°. The values pass through the URL so the page stays shareable.

No JS? Fill the form by hand. The geolocation button needs JavaScript.